User: anonymous   Login
Location: Carbonear
(47.7333°N, 53.2500°W)
Time: 20:30:46
(UTC+00:00)
Language:

AO-27 - Orbit

View from above orbital plane
View from above orbital plane
View from above satellite
View from above satellite

Ground track
Ground track

The orbit data is extracted from the following two-line orbital elements,

1 22825U 93061C   24113.72081626  .00000498  00000-0  20860-3 0  9991
2 22825  98.7939 165.9038 0007487 236.6353 123.4112 14.30464816594955
Epoch (UTC): 22 April 2024 17:17:58
Eccentricity: 0.0007487
inclination: 98.7939°
perigee height: 785 km
apogee height: 795 km
right ascension of ascending node: 165.9038°
argument of perigee: 236.6353°
revolutions per day: 14.30464816
mean anomaly at epoch: 123.4112°
orbit number at epoch: 59495

The dashed part of the orbit path shows where the satellite is in the earth's shadow,  

DLR